Regional Weather Roundup
Issued by NWS

Home | Current Version | Previous Version | Text Only | Print | Product List | Glossary On
Versions: 1 2 3 4 5 6 7 8 9 10 11 12 13 14 15 16 17 18 19 20 21 22 23 24 25 26 27 28 29 30 31 32 33 34 35 36 37 38 39 40 41 42 43 44 45 46 47 48 49 50
000
ASUS44 KMEG 231110
RWRTN
TENNESSEE HOURLY STATE WEATHER ROUNDUP
NATIONAL WEATHER SERVICE MEMPHIS TN
600 AM CDT THU OCT 23 2014

TNZ002-004-019-021-049-052-054-088>092-231200-
WEST TENNESSEE

CITY           SKY/WX    TMP DP  RH WIND       PRES   REMARKS
MEMPHIS INTL   PTCLDY    46  41  82 E3        30.17F
NWS MEMPHIS      N/A     44 N/A N/A MISG        N/A
JACKSON        CLEAR     39  36  89 CALM      30.20R
DYERSBURG      CLEAR     45  32  61 E6        30.21S
UNION CITY     CLEAR     37  37 100 CALM      30.20R
PARIS          CLEAR     43  39  87 E5        30.21R
LEXINGTON      CLEAR     37  37 100 CALM      30.18S
SAVANNAH       CLEAR     36  36 100 CALM      30.18S
$$

TNZ008-025-027-028-033-062-065-066-231200-
NORTH MIDDLE TENNESSEE

CITY           SKY/WX    TMP DP  RH WIND       PRES   REMARKS
NASHVILLE      CLEAR     42  40  92 NE3       30.23F
CLARKSVILLE    CLEAR     36  35  96 CALM      30.23S FOG
SMYRNA         CLEAR     37  36  96 CALM      30.24S
COOKEVILLE     CLEAR     32  30  93 CALM      30.21F
CROSSVILLE     CLEAR     38  34  85 NE3       30.20S
$$

TNZ061-075-076-078-094-096-097-231200-
SOUTH MIDDLE TENNESSEE

CITY           SKY/WX    TMP DP  RH WIND       PRES   REMARKS
FAYETTEVILLE   CLEAR     37  37 100 NE7       30.19S WCI  32
TULLAHOMA      CLEAR     39  37  93 NE5       30.21S
WINCHESTER     CLEAR     34  32  93 CALM      30.21R
MCMINNVILLE    CLEAR     36  36 100 CALM      30.22R
COLUMBIA       CLEAR    N/A N/A N/A CALM      30.19S
SHELBYVILLE    CLEAR     36  36 100 CALM      30.22S
$$

TNZ017-018-042-046-047-231200-
NORTHEAST TENNESSEE

CITY           SKY/WX    TMP DP  RH WIND       PRES   REMARKS
TRI CITIES     CLOUDY    47  38  71 N9        30.20R
ELIZABETHTON   CLOUDY    45  37  76 CALM      30.19R
$$

TNZ012-013-036-069-073-074-231200-
CENTRAL EAST TENNESSEE

CITY           SKY/WX    TMP DP  RH WIND       PRES   REMARKS
KNOXVILLE      PTCLDY    42  38  85 N5        30.20R
OAK RIDGE      CLEAR     45  40  82 CALM      30.22R
GATLINBURG     PTSUNNY   37  36  93 CALM      30.20S
MORRISTOWN     CLOUDY    46  41  81 CALM      30.21R
$$

TNZ083-085-099-231200-
SOUTHEAST TENNESSEE

CITY           SKY/WX    TMP DP  RH WIND       PRES   REMARKS
CHATTANOOGA    CLEAR     47  40  76 N9        30.20R
$$

SKY/WX REPORTED AS FAIR MEANS FEW OR NO CLOUDS BELOW
12 THOUSAND FEET.




USA.gov is the U.S. government's official web portal to all federal, state and local government web resources and services.